User: anonymous   Login
Location: La B�doule
(43.2468°N, 5.5934°E)
Time: 12:28:46
(UTC+00:00)
Language:

SL-24 DEB - Orbit

View from above orbital plane
View from above orbital plane
View from above satellite
View from above satellite

Ground track
Ground track

The orbit data is extracted from the following two-line orbital elements,

1 36510U 10013C   21162.84729003  .00000271  00000-0  51624-4 0  9997
2 36510  92.0192 210.5582 0021839 293.7037  66.1885 14.63378198595820
Epoch (UTC): 11 June 2021 20:20:05
Eccentricity: 0.0021839
inclination: 92.0192°
perigee height: 667 km
apogee height: 698 km
right ascension of ascending node: 210.5582°
argument of perigee: 293.7037°
revolutions per day: 14.63378198
mean anomaly at epoch: 66.1885°
orbit number at epoch: 59582

The dashed part of the orbit path shows where the satellite is in the earth's shadow,  

DLR